Regional Weather Roundup
Issued by NWS

Home | Current Version | Previous Version | Graphics & Text | Print | Product List | Glossary On
Versions: 1 2 3 4 5 6 7 8 9 10 11 12 13 14 15 16 17 18 19 20 21 22 23 24 25 26 27 28 29 30 31 32 33 34 35 36 37 38 39 40 41 42 43 44 45 46 47 48 49 50
000
ASUS43 KMKX 021621
RWRWI

WISCONSIN REGIONAL WEATHER ROUNDUP
NATIONAL WEATHER SERVICE MILWAUKEE/SULLIVAN WI
1100 AM CDT TUE JUN 02 2015

NOTE: "FAIR" INDICATES FEW OR NO CLOUDS BELOW 12,000 FEET WITH NO
SIGNIFICANT WEATHER AND/OR OBSTRUCTIONS TO VISIBILITY.

WIZ001-002-006>008-014>016-023>028-021700-
NORTHWEST WISCONSIN

CITY           SKY/WX    TMP DP  RH WIND       PRES   REMARKS
SUPERIOR ARPT  SUNNY     54  42  66 NE8       30.04F
ASHLAND        PTSUNNY   67  43  41 S13G21    30.07F
HAYWARD        PTSUNNY   67  45  45 S13       30.08F
SIREN          SUNNY     70  50  49 SW16G22   30.05F
CUMBERLAND     SUNNY     63  48  59 S13       30.08F
RICE LAKE      SUNNY     66  46  47 S13       30.10F
CHETEK         SUNNY     65  49  56 SE10      30.10F
LADYSMITH      SUNNY     64  42  44 S10       30.14F
EAU CLAIRE     SUNNY     66  47  50 SE9       30.10F
MENOMONIE      SUNNY     67  50  54 S10       30.09F
NEW RICHMOND   SUNNY     67  52  59 S12       30.07S
OSCEOLA        SUNNY     69  53  56 S18       30.07F
$$

WIZ003>005-009-010-017-018-021700-
NORTH CENTRAL WISCONSIN

CITY           SKY/WX    TMP DP  RH WIND       PRES   REMARKS
MANITOWISH WTR PTSUNNY   61  41  47 S9        30.13F
ARBOR VITAE    PTSUNNY   62  40  43 S10       30.14S
WOODRUFF       PTSUNNY   62  40  43 S10       30.14S
RHINELANDER    MOSUNNY   62  34  35 S10       30.16F
EAGLE RIVER    PTSUNNY   62  35  35 S6        30.14F
LAND O LAKES   PTSUNNY   63  35  35 SW7       30.14F
PHILLIPS       SUNNY     63  41  44 S12G17    30.12F
TOMAHAWK       MOSUNNY   61  38  41 S5        30.16S
MEDFORD        SUNNY     60  40  48 S8        30.15F
MERRILL        SUNNY     62  38  41 S6        30.17S
$$

WIZ029-030-035-036-043>047-021700-
CENTRAL WISCONSIN

CITY           SKY/WX    TMP DP  RH WIND       PRES   REMARKS
WAUSAU         SUNNY     63  40  42 S8        30.15F
MOSINEE        SUNNY     61  41  48 S10       30.18F
MARSHFIELD     SUNNY     64  40  41 S10       30.15F
STEVENS POINT  SUNNY     62  38  42 S8        30.17F
WAUPACA        SUNNY     67  41  39 SE10      30.18S
WAUTOMA        SUNNY     67  41  38 S9        30.18F
WISC RAPIDS    SUNNY     65  36  34 SW10      30.17F
CAMP DOUGLAS   MOSUNNY   64  46  52 VRB7      30.15F
$$

WIZ011>013-019>022-031-037>040-048>050-021700-
NORTHEAST WISCONSIN

CITY           SKY/WX    TMP DP  RH WIND       PRES   REMARKS
ANTIGO         MOSUNNY   60  42  51 S12       30.17F
SHAWANO        MOSUNNY   65  41  40 S7        30.18F
OCONTO         MOSUNNY   64  41  43 SE7       30.18F
STURGEON BAY   MOSUNNY   63  46  55 E7        30.21F
GREEN BAY      MOSUNNY   65  40  39 S8        30.18F
MANITOWOC      SUNNY     56  43  61 SE9       30.21S
APPLETON       MOSUNNY   64  37  36 SE7       30.18F
CLINTONVILLE   SUNNY     63  41  45 S8        30.18S
OSHKOSH        SUNNY     66  43  43 VRB7      30.17F
$$

WIZ032>034-041-042-053>061-021700-
SOUTHWEST WISCONSIN

CITY           SKY/WX    TMP DP  RH WIND       PRES   REMARKS
LA CROSSE      SUNNY     66  48  52 S8        30.12F
SPARTA         SUNNY     66  44  44 S8        30.14F
VIROQUA        SUNNY     64  49  58 SE8       30.14F
BOSCOBEL       SUNNY     67  51  56 VRB5      30.15F
PRAIRIE DU CHI MOSUNNY   64  49  57 CALM      30.13F
PLATTEVILLE    MOSUNNY   64  52  66 E5        30.16F
$$

WIZ056-057-062-063-064-067-068-021700-
SOUTH CENTRAL WISCONSIN

CITY           SKY/WX    TMP DP  RH WIND       PRES   REMARKS
REEDSBURG      SUNNY     62  43  50 SE3       30.16F
BARABOO/DELLS  SUNNY     63  43  48 S7        30.16F
LONE ROCK      SUNNY     66  43  43 SW6       30.16F
MINERAL POINT  SUNNY     64  46  52 S5        30.16F
MADISON        MOSUNNY   64  44  48 S9        30.16F
MIDDLETON      SUNNY     65  41  42 S7        30.17F
WATERTOWN      SUNNY     66  44  44 CALM      30.16F
MONROE         SUNNY     63  45  51 SE7       30.16F
JANESVILLE     SUNNY     64  45  48 S10       30.16F
$$

WIZ051-052-058>065-066-070>072-021700-
SOUTHEAST WISCONSIN

CITY           SKY/WX    TMP DP  RH WIND       PRES   REMARKS
MILWAUKEE      MOSUNNY   59  44  57 E8        30.20F
WAUKESHA       SUNNY     63  37  39 E7G16     30.18F
MILWAUKEE/TIMM SUNNY     64  34  32 SE5       30.19F
RACINE         SUNNY     57  45  64 E8        30.21F
BURLINGTON     SUNNY     64  44  48 E6        30.17F
KENOSHA        SUNNY     63  48  58 E9        30.19F
FOND DU LAC    LGT RAIN  66  42  41 S9        30.18F
SHEBOYGAN      SUNNY     64  43  46 SE5       30.19F
WEST BEND      SUNNY     64  37  36 SE7       30.18F
JUNEAU         SUNNY     64  40  41 SE8       30.19F
$$

LSZ147-162-021700-
LAKE SUPERIOR

STATION/POSITION TIME  TEMP    WIND        PRES    WAVE
                       AIR SEA DIR/SP/G            HT/PER
                 (UTC) (F)     (DEG/KT/KT) (MB)    (FT/S)
W MID LAKE BUOY  1550   42 37  120/  4/  4   N/A     1
DEVILS ISLAND    1600   60     170/  8/ 13   N/A
PORT WING        1500   45      30/  5/  6   N/A
SAXON HARBOR     1540   67     210/ 11/ 14   N/A
$$

LMZ867-665-643>646-021700-
LAKE MICHIGAN

STATION/POSITION TIME  TEMP    WIND        PRES    WAVE
                       AIR SEA DIR/SP/G            HT/PER
                 (UTC) (F)     (DEG/KT/KT) (MB)    (FT/S)
CHAMBERS ISLAND  1500   58     340/  3/  4   N/A
N MID LAKE BUOY  1550   42 38  190/  4/  4   N/A     0
NORTHPORT PIER   1500   48     140/ 10/ 12   N/A
SISTER BAY       1503   58        CALM       N/A
KEWAUNEE LAKESHO 1500   46     160/  4/  6   N/A
SHEBOYGAN LAKESH 1600   47     140/  9/  9   N/A
PORT WASHINGTON  1500   51      70/  4/  4   N/A
ATWATER BUOY     1500   46      50/  6/  6   N/A
MILWAUKEE LAKESH 1500   46      50/  7/  7   N/A
S MID LAKE BUOY  1550   42 39  120/  6/  8   N/A     1
KENOSHA   LAKESH 1600   49      80/  4/  7   N/A
$$

TC  - TEMPERATURE IN CELSIUS
VSB - VISIBILITY IN STATUTE MILES
WCI - WIND CHILL INDEX
HX  - HEAT INDEX



USA.gov is the U.S. government's official web portal to all federal, state and local government web resources and services.